Weather History for Chillicothe, MO

Change the Weather History Date:

Sunday, January 20, 2013

  Actual Average (KIRK) Record (KIRK)
Temperature  
Mean Temperature 24 °F 26 °F  
Max Temperature 32 °F 35 °F 60 °F (1921)
Min Temperature 16 °F 17 °F -21 °F (1985)
Degree Days  
Heating Degree Days 41 39  
Month to date heating degree days 780  
Since 1 July heating degree days 3123  
Cooling Degree Days 0 0  
Month to date cooling degree days 0  
Year to date cooling degree days 0  
Moisture  
Dew Point 8 °F    
Average Humidity 54    
Maximum Humidity 77    
Minimum Humidity 40    
Precipitation  
Precipitation 0.00 in 0.04 in 0.36 in (1937)
Month to date precipitation 0.68  
Year to date precipitation 0.68  
Sea Level Pressure  
Sea Level Pressure 30.41 in    
Wind  
Wind Speed 7 mph (North)    
Max Wind Speed 12 mph    
Max Gust Speed 20 mph    
T = Trace of Precipitation, MM = Missing Value Source: NWS Daily Summary

Daily Weather History Graph

Daily Weather History Graph

Search for Another Location

Airport:

Trip Planner

Search our weather history database for the weather conditions in past years. The results will help you decide how hot, cold, wet, or windy it might be!

Date:

Astronomy

Jan. 20, 2013 Rise Set
Actual Time 7:31 AM CST 5:20 PM CST
Civil Twilight 7:01 AM CST 5:49 PM CST
Nautical Twilight 6:28 AM CST 6:22 PM CST
Astronomical Twilight 5:56 AM CST 6:54 PM CST
Moon 12:21 PM CST (1/20) 2:04 AM CST (1/20)
Length of Visible Light 10h 47m
Length of Day
9h 48m
Waxing Gibbous, 66% of the Moon is Illuminated
Jan 20
Waxing Gibbous
Jan 26
Full
Feb 3
Last Quarter
Feb 10
New
Feb 17
First Quarter

Hourly Weather History & Observations

Time (CST) Temp. Windchill Dew Point Humidity Pressure Visibility Wind Dir Wind Speed Gust Speed Precip Events Conditions
12:52 AM 32.0 °F 23.0 °F 10.0 °F 40% 30.31 in - NW 11.5 mph 19.6 mph N/A   Unknown
1:52 AM 28.0 °F 19.3 °F 9.0 °F 45% 30.35 in - NNW 9.2 mph 16.1 mph N/A   Unknown
2:52 AM 25.0 °F 15.5 °F 10.9 °F 55% 30.35 in - North 9.2 mph 19.6 mph N/A   Unknown
3:52 AM 21.9 °F 14.5 °F 12.0 °F 66% 30.36 in - NNW 5.8 mph - N/A   Unknown
4:52 AM 19.9 °F 14.9 °F 7.0 °F 57% 30.37 in - North 3.5 mph - N/A   Unknown
5:52 AM 19.0 °F 13.9 °F 7.0 °F 59% 30.39 in - NNE 3.5 mph - N/A   Unknown
6:52 AM 19.0 °F - 8.1 °F 62% 30.41 in - Calm Calm - N/A   Unknown
7:52 AM 19.0 °F 11.1 °F 9.0 °F 65% 30.41 in - NNE 5.8 mph - N/A   Unknown
8:52 AM 19.9 °F 11.1 °F 8.1 °F 60% 30.42 in - NNE 6.9 mph - N/A   Unknown
9:52 AM 21.0 °F 12.4 °F 6.1 °F 53% 30.42 in - NE 6.9 mph - N/A   Unknown
10:52 AM 24.1 °F 15.2 °F 5.0 °F 44% 30.44 in - NNE 8.1 mph - N/A   Unknown
11:52 AM 25.0 °F 20.7 °F 6.1 °F 45% 30.43 in - Variable 3.5 mph - N/A   Unknown
12:52 PM 26.1 °F 19.4 °F 7.0 °F 44% 30.41 in - Variable 5.8 mph - N/A   Unknown
1:52 PM 27.0 °F 18.7 °F 6.1 °F 41% 30.40 in - North 8.1 mph - N/A   Unknown
2:52 PM 26.1 °F 16.8 °F 6.1 °F 43% 30.41 in - North 9.2 mph - N/A   Unknown
3:52 PM 26.1 °F 17.6 °F 7.0 °F 44% 30.41 in - North 8.1 mph - N/A   Unknown
4:52 PM 25.0 °F 18.1 °F 6.1 °F 45% 30.42 in - North 5.8 mph - N/A   Unknown
5:52 PM 24.1 °F 16.0 °F 5.0 °F 44% 30.43 in - North 6.9 mph - N/A   Unknown
6:52 PM 23.0 °F 14.7 °F 6.1 °F 48% 30.44 in - North 6.9 mph - N/A   Unknown
7:52 PM 21.9 °F 15.7 °F 6.1 °F 51% 30.45 in - NNW 4.6 mph - N/A   Unknown
8:52 PM 19.9 °F 12.1 °F 9.0 °F 62% 30.46 in - NNW 5.8 mph - N/A   Unknown
9:52 PM 18.0 °F 12.7 °F 10.0 °F 71% 30.46 in - NW 3.5 mph - N/A   Unknown
10:52 PM 16.0 °F 10.4 °F 10.0 °F 77% 30.46 in - WNW 3.5 mph - N/A   Unknown
11:52 PM 17.1 °F 6.6 °F 10.0 °F 74% 30.47 in - NNW 8.1 mph - N/A   Unknown